When you browse on this site, cookies collect data to enhance your experience and personalize the content and advertising you see.
Visit our Privacy Policy to learn more. By continuing to use the site, you agree to this use of cookies and data.
  • In Hungary
  • List of Countries
  • For 7 days
  • Water Temperature
  • Satellite Maps
  • Weather Map
  • News
  • Weather Widgets
  • user-avatar
    Login

    Hourly Weather Shkoder

    Today, 20 April, Saturday

    Time Temperature Precipitation Wind Pressure Humidity
    00:00 +12°C° 0 mm 2 mps 746 mmHg 67%
    01:00 +12°C° 0 mm 2 mps 746 mmHg 68%
    02:00 +10°C° 0 mm 2 mps 746 mmHg 68%
    03:00 +10°C° 0 mm 2 mps 746 mmHg 68%
    04:00 +10°C° 0 mm 2 mps 746 mmHg 69%
    05:00 +12°C° 0 mm 2 mps 746 mmHg 66%
    06:00 +13°C° 0 mm 2 mps 746 mmHg 63%
    07:00 +14°C° 0 mm 2 mps 745 mmHg 60%
    08:00 +15°C° 0 mm 2 mps 745 mmHg 52%
    09:00 +17°C° 0 mm 2 mps 745 mmHg 45%
    10:00 +18°C° 0 mm 2 mps 745 mmHg 37%
    11:00 +19°C° 0 mm 2 mps 745 mmHg 36%
    12:00 +20°C° 0 mm 2 mps 745 mmHg 36%
    13:00 +20°C° 0 mm 2 mps 745 mmHg 35%
    14:00 +20°C° 0 mm 2 mps 745 mmHg 37%
    15:00 +20°C° 0 mm 2 mps 745 mmHg 38%
    16:00 +19°C° 0 mm 2 mps 745 mmHg 40%
    17:00 +18°C° 0 mm 2 mps 745 mmHg 45%
    18:00 +16°C° 0 mm 2 mps 745 mmHg 51%
    19:00 +14°C° 0 mm 2 mps 745 mmHg 56%
    20:00 +14°C° 0 mm 2 mps 745 mmHg 58%
    21:00 +13°C° 0 mm 2 mps 746 mmHg 60%
    22:00 +11°C° 0 mm 3 mps 746 mmHg 62%
    23:00 +11°C° 0 mm 3 mps 746 mmHg 64%

    Tomorrow, 21 April, Sunday

    Time Temperature Precipitation Wind Pressure Humidity
    00:00 +11°C° 0 mm 3 mps 746 mmHg 67%
    01:00 +10°C° 0 mm 3 mps 746 mmHg 70%
    02:00 +10°C° 0 mm 3 mps 746 mmHg 70%
    03:00 +10°C° 0 mm 3 mps 746 mmHg 70%
    04:00 +9°C° 0 mm 3 mps 745 mmHg 70%
    05:00 +12°C° 0 mm 2 mps 745 mmHg 67%
    06:00 +13°C° 0 mm 2 mps 745 mmHg 64%
    07:00 +14°C° 0 mm 2 mps 745 mmHg 61%
    08:00 +15°C° 0 mm 2 mps 745 mmHg 56%
    09:00 +17°C° 0 mm 2 mps 745 mmHg 51%
    10:00 +18°C° 0 mm 2 mps 745 mmHg 45%
    11:00 +18°C° 0 mm 3 mps 744 mmHg 50%
    12:00 +18°C° 0 mm 3 mps 744 mmHg 54%
    13:00 +18°C° 0 mm 3 mps 744 mmHg 58%
    14:00 +18°C° 0.1 mm 3 mps 743 mmHg 62%
    15:00 +17°C° 0.1 mm 2 mps 743 mmHg 65%
    16:00 +17°C° 0.1 mm 2 mps 742 mmHg 69%
    17:00 +16°C° 0 mm 2 mps 743 mmHg 76%
    18:00 +14°C° 0 mm 1 mps 743 mmHg 83%
    19:00 +13°C° 0 mm 1 mps 743 mmHg 90%
    20:00 +13°C° 0 mm 1 mps 743 mmHg 91%
    21:00 +12°C° 0 mm 1 mps 743 mmHg 92%
    22:00 +12°C° 0 mm 1 mps 743 mmHg 93%
    23:00 +12°C° 0 mm 1 mps 743 mmHg 92%

    Day after tomorrow, 22 April, Monday

    Time Temperature Precipitation Wind Pressure Humidity
    00:00 +11°C° 0 mm 1 mps 743 mmHg 91%
    01:00 +11°C° 0 mm 1 mps 743 mmHg 89%
    02:00 +11°C° 0 mm 1 mps 742 mmHg 89%
    03:00 +11°C° 0 mm 1 mps 742 mmHg 89%
    04:00 +10°C° 0 mm 1 mps 742 mmHg 89%
    05:00 +11°C° 0 mm 1 mps 742 mmHg 84%
    06:00 +13°C° 0 mm 1 mps 742 mmHg 79%
    07:00 +14°C° 0 mm 1 mps 741 mmHg 74%
    08:00 +15°C° 0 mm 1 mps 741 mmHg 67%
    09:00 +18°C° 0 mm 1 mps 741 mmHg 59%
    10:00 +20°C° 0 mm 1 mps 741 mmHg 51%
    11:00 +19°C° 0 mm 2 mps 740 mmHg 49%
    12:00 +20°C° 0 mm 2 mps 740 mmHg 47%
    13:00 +20°C° 0 mm 3 mps 740 mmHg 44%
    14:00 +20°C° 0 mm 2 mps 739 mmHg 47%
    15:00 +19°C° 0 mm 2 mps 739 mmHg 49%
    16:00 +20°C° 0 mm 1 mps 739 mmHg 52%
    17:00 +18°C° 0 mm 1 mps 738 mmHg 58%
    18:00 +16°C° 0 mm 1 mps 738 mmHg 65%
    19:00 +15°C° 0 mm 1 mps 738 mmHg 71%
    20:00 +14°C° 0.7 mm 1 mps 738 mmHg 76%
    21:00 +14°C° 0.7 mm 1 mps 738 mmHg 81%
    22:00 +14°C° 0.7 mm 1 mps 739 mmHg 86%
    23:00 +14°C° 0.3 mm 1 mps 738 mmHg 85%

    23 April, Tuesday

    Time Temperature Precipitation Wind Pressure Humidity
    00:00 +14°C° 0.3 mm 1 mps 738 mmHg 84%
    01:00 +14°C° 0.3 mm 1 mps 738 mmHg 83%
    02:00 +14°C° 0.1 mm 1 mps 738 mmHg 81%
    03:00 +14°C° 0.1 mm 1 mps 738 mmHg 79%
    04:00 +15°C° 0.1 mm 1 mps 737 mmHg 77%
    05:00 +15°C° 0 mm 1 mps 737 mmHg 74%
    06:00 +16°C° 0 mm 1 mps 738 mmHg 71%
    07:00 +17°C° 0 mm 2 mps 738 mmHg 67%
    08:00 +19°C° 0 mm 3 mps 738 mmHg 60%
    09:00 +20°C° 0 mm 4 mps 738 mmHg 52%
    10:00 +21°C° 0 mm 5 mps 739 mmHg 44%
    11:00 +21°C° 0 mm 5 mps 738 mmHg 48%
    12:00 +21°C° 0 mm 5 mps 738 mmHg 51%
    13:00 +21°C° 0 mm 5 mps 738 mmHg 54%
    14:00 +20°C° 0 mm 4 mps 738 mmHg 61%
    15:00 +19°C° 0 mm 3 mps 738 mmHg 67%
    16:00 +19°C° 0 mm 1 mps 738 mmHg 73%
    17:00 +18°C° 0 mm 1 mps 739 mmHg 74%
    18:00 +18°C° 0 mm 1 mps 739 mmHg 74%
    19:00 +16°C° 0 mm 2 mps 740 mmHg 75%
    20:00 +16°C° 0 mm 2 mps 740 mmHg 76%
    21:00 +16°C° 0 mm 2 mps 741 mmHg 77%
    22:00 +15°C° 0 mm 2 mps 741 mmHg 78%
    23:00 +15°C° 0 mm 2 mps 741 mmHg 77%

    24 April, Wednesday

    Time Temperature Precipitation Wind Pressure Humidity
    00:00 +15°C° 0 mm 2 mps 741 mmHg 76%
    01:00 +14°C° 0 mm 2 mps 741 mmHg 75%
    02:00 +14°C° 0 mm 2 mps 741 mmHg 74%
    03:00 +14°C° 0 mm 2 mps 742 mmHg 73%
    04:00 +14°C° 0 mm 2 mps 742 mmHg 72%
    05:00 +15°C° 0 mm 2 mps 742 mmHg 69%
    06:00 +17°C° 0 mm 2 mps 742 mmHg 66%
    07:00 +18°C° 0 mm 2 mps 742 mmHg 63%
    08:00 +20°C° 0 mm 2 mps 742 mmHg 55%
    09:00 +23°C° 0 mm 1 mps 742 mmHg 47%
    10:00 +25°C° 0 mm 1 mps 742 mmHg 40%
    11:00 +25°C° 0 mm 1 mps 742 mmHg 39%
    12:00 +26°C° 0 mm 2 mps 742 mmHg 39%
    13:00 +26°C° 0 mm 3 mps 742 mmHg 39%
    14:00 +25°C° 0 mm 3 mps 742 mmHg 42%
    15:00 +24°C° 0 mm 3 mps 742 mmHg 45%
    16:00 +24°C° 0 mm 2 mps 741 mmHg 47%
    17:00 +21°C° 0 mm 2 mps 742 mmHg 53%
    18:00 +20°C° 0 mm 1 mps 742 mmHg 59%
    19:00 +18°C° 0 mm 1 mps 742 mmHg 65%
    20:00 +18°C° 0 mm 1 mps 742 mmHg 65%
    21:00 +18°C° 0 mm 1 mps 743 mmHg 65%
    22:00 +16°C° 0 mm 2 mps 743 mmHg 65%
    23:00 +16°C° 0 mm 2 mps 743 mmHg 66%

    25 April, Thursday

    Time Temperature Precipitation Wind Pressure Humidity
    00:00 +16°C° 0 mm 2 mps 743 mmHg 66%
    01:00 +16°C° 0 mm 2 mps 743 mmHg 67%
    02:00 +16°C° 0 mm 2 mps 743 mmHg 68%
    03:00 +16°C° 0 mm 2 mps 743 mmHg 69%
    04:00 +16°C° 0 mm 2 mps 743 mmHg 69%
    05:00 +17°C° 0 mm 2 mps 743 mmHg 68%
    06:00 +18°C° 0 mm 2 mps 743 mmHg 67%
    07:00 +19°C° 0 mm 2 mps 743 mmHg 66%
    08:00 +22°C° 0.2 mm 1 mps 743 mmHg 61%
    09:00 +23°C° 0.2 mm 1 mps 743 mmHg 55%
    10:00 +25°C° 0.2 mm 1 mps 743 mmHg 50%
    11:00 +26°C° 0.1 mm 1 mps 742 mmHg 46%
    12:00 +27°C° 0.1 mm 1 mps 742 mmHg 42%
    13:00 +27°C° 0.1 mm 1 mps 742 mmHg 38%
    14:00 +28°C° 0 mm 2 mps 741 mmHg 38%
    15:00 +28°C° 0 mm 2 mps 741 mmHg 38%
    16:00 +28°C° 0 mm 2 mps 740 mmHg 39%
    17:00 +26°C° 0 mm 2 mps 740 mmHg 47%
    18:00 +23°C° 0 mm 1 mps 740 mmHg 55%
    19:00 +20°C° 0 mm 1 mps 740 mmHg 63%
    20:00 +21°C° 0 mm 1 mps 740 mmHg 64%
    21:00 +21°C° 0 mm 1 mps 740 mmHg 64%
    22:00 +21°C° 0 mm 1 mps 740 mmHg 64%
    23:00 +20°C° 0 mm 1 mps 740 mmHg 65%
    Show more